[[{"header":{"parameterUnit":"m.s-1","parameterCategory":1,"la1":30.2991,"la2":30.254,"lo1":-89.0895,"lo2":-89.0444,"dy":0.0017,"dx":0.0017,"nx":28,"ny":28,"refTime":"2026-03-05T03:00:00:Z","depth":0,"parameterNumber":2,"parameterNumberName":"U-component_of_WINDS"},"data":[0,0,0,0,0,0,0,0,0,0,0,0,0,0,0,0,0,0,0,0,0,0,0,0,0,0,0,0,0,0,0,0,0,0,0,0,0,0,0,0,0,0,0,0,0,0,0,0,0,0,0,0,0,0,0,0,0,0,-4.0367,-4.0368,0,-4.0411,-4.0412,-4.0412,-4.0355,-4.0353,-4.0351,-4.0349,-4.0392,-4.0395,-4.0398,0,0,0,0,0,0,0,0,0,0,0,0,0,-4.0233,-4.0235,-4.0367,-4.0368,-4.0368,-4.0411,-4.0412,-4.0412,-4.0356,-4.0353,-4.0351,-4.0348,-4.0391,-4.0395,-4.0398,0,0,0,0,0,0,0,0,0,0,0,0,0,-4.0285,-4.0236,-4.0367,-4.0345,-4.0344,-4.0411,-4.0412,-4.0413,-4.0356,-4.0353,-4.035,-4.0347,-4.039,-4.0394,-4.0399,-4.0489,0,0,-4.0413,-4.0415,0,0,0,0,0,0,0,0,-4.0282,-4.029,-4.0348,-4.0347,-4.0345,-4.0375,-4.038,-4.0438,-4.0357,-4.0352,-4.0349,-4.0346,-4.0389,-4.0393,-4.0408,-4.0491,-4.0493,-4.0413,-4.0416,-4.0418,-4.0419,0,0,0,0,0,0,0,-4.0279,-4.0288,-4.0384,-4.0349,-4.0347,-4.0333,-4.0337,-4.0391,-4.0387,-4.0352,-4.0348,-4.0354,-4.0387,-4.0404,-4.0409,-4.0493,-4.0413,-4.0417,-4.042,-4.0422,-4.0653,-4.0657,0,0,0,0,0,0,-4.0278,-4.0285,-4.0383,-4.0386,-4.0306,-4.0338,-4.0342,-4.0368,-4.0386,-4.0386,-4.0356,-4.0351,-4.0398,-4.0403,-4.041,-4.0516,-4.0418,-4.0422,-4.0425,-4.065,-4.0654,-4.0658,0,0,0,0,0,0,-4.0275,-4.0287,-4.0381,-4.0335,-4.0345,-4.0343,-4.0373,-4.0371,-4.0387,-4.039,-4.0388,-4.0374,-4.0395,-4.0404,-4.047,-4.0517,-4.0424,-4.0429,-4.0646,-4.0651,-4.0656,-4.073,0,0,0,0,0,0,-4.0272,-4.0287,-4.0321,-4.0336,-4.0348,-4.0441,-4.0376,-4.0374,-4.0396,-4.0389,-4.0406,-4.0406,-4.0394,-4.0464,-4.0475,-4.0522,-4.0432,-4.0642,-4.0648,-4.0654,-4.0724,-4.0737,-4.0749,0,0,0,0,0,-4.0267,-4.0339,-4.0323,-4.0335,-4.0391,-4.0444,-4.0451,-4.0436,-4.04,-4.0434,-4.0436,-4.0405,-4.0511,-4.0471,-4.0483,-4.0532,-4.0639,-4.0646,-4.0654,-4.0718,-4.0735,-4.0749,0,0,0,0,0,0,-4.0328,-4.0341,-4.0322,-4.0402,-4.0423,-4.0434,-4.0477,-4.0454,-4.0485,-4.0477,-4.0457,-4.0461,-4.0532,-4.0539,-4.0494,-4.0621,-4.0569,-4.0579,-4.0613,-4.0629,-4.0642,-4.0637,-4.0436,0,0,0,0,0,-4.0351,-4.0394,-4.0402,-4.0471,-4.0483,-4.0479,-4.0501,-4.0488,-4.0508,-4.0516,-4.0523,-4.0543,-4.0581,-4.0606,-4.064,-4.0725,-4.0728,-4.0765,-4.0778,-4.0789,-4.0797,-4.0843,-4.0859,-4.0683,-4.0683,-4.0683,0,0,-4.0398,-4.0411,-4.0438,-4.0484,-4.0498,-4.0542,-4.0486,-4.0534,-4.0567,-4.0523,-4.0586,-4.0593,-4.0614,-4.069,-4.0724,-4.0698,-4.0847,-4.0798,-4.0807,-4.0809,-4.0852,-4.0869,-4.0884,-4.0688,-4.0687,-4.0686,0,0,-4.0506,-4.0521,-4.058,-4.0596,-4.0619,-4.0616,-4.0631,-4.0647,-4.0649,-4.0713,-4.0682,-4.072,-4.0785,-4.0802,-4.0819,-4.0937,-4.091,-4.0949,-4.1015,-4.1059,-4.1073,-4.1085,-4.1127,-4.1142,-4.0958,-4.0958,-4.0958,0,-4.0561,-4.0627,-4.0613,-4.0664,-4.0685,-4.065,-4.071,-4.0726,-4.0759,-4.0774,-4.0745,-4.0828,-4.084,-4.0919,-4.0949,-4.0964,-4.0979,-4.0946,-4.1073,-4.1085,-4.1096,-4.1135,-4.115,-4.0963,-4.0962,-4.0962,-4.0961,0,-4.0694,-4.074,-4.0785,-4.0819,-4.0846,-4.0901,-4.0895,-4.0924,-4.091,-4.091,-4.0976,-4.0989,-4.1027,-4.1045,-4.1031,-4.1124,-4.1107,-4.1076,-4.1022,-4.1117,-4.1154,-4.1169,-4.0969,-4.0968,-4.0966,-4.0965,0,0,-4.0838,-4.0866,-4.0883,-4.0898,-4.0923,-4.0958,-4.1013,-4.105,-4.1075,-4.11,-4.1144,-4.1202,-4.1174,-4.1194,-4.1182,-4.1222,-4.1314,-4.1186,-4.1186,-4.1208,-4.1416,-4.1438,-4.1455,-4.1297,-4.13,-4.1302,-4.1414,0,-4.0945,-4.104,-4.103,-4.1119,-4.1162,-4.1131,-4.1178,-4.1199,-4.1201,-4.1237,-4.124,-4.1281,-4.1241,-4.1253,-4.1291,-4.1295,-4.1355,-4.1287,-4.1337,-4.1339,-4.1331,-4.1474,-4.1497,-4.1601,-4.1428,-4.143,-4.1432,0,-4.1082,-4.1114,-4.1208,-4.1228,-4.1245,-4.1288,-4.1322,-4.1358,-4.1381,-4.138,-4.1403,-4.1385,-4.144,-4.1388,-4.1463,-4.1417,-4.1437,-4.1443,-4.1446,-4.1448,-4.139,-4.1479,-4.1634,-4.1649,-4.1454,-4.1453,-4.1451,0,-4.1176,-4.1243,-4.1308,-4.1322,-4.1347,-4.1378,-4.139,-4.1409,-4.1433,-4.1464,-4.1479,-4.1515,-4.1535,-4.1563,-4.1556,-4.1519,-4.1632,-4.158,-4.1632,-4.1632,-4.1655,-4.1653,-4.1814,-4.1672,-4.1672,-4.1672,-4.1671,0,-4.1296,-4.1355,-4.1351,-4.139,-4.1456,-4.1445,-4.1509,-4.1517,-4.1535,-4.1576,-4.1552,-4.1591,-4.1579,-4.1617,-4.1612,-4.1675,-4.1684,-4.1684,-4.1682,-4.1685,-4.1685,-4.1696,-4.1688,-4.1676,-4.1675,-4.1674,-4.1673,0,-4.1411,-4.1411,-4.148,-4.1499,-4.1505,-4.1552,-4.1568,-4.1605,-4.1607,-4.1659,-4.1671,-4.1674,-4.1718,-4.1714,-4.1763,-4.1759,-4.1836,-4.1826,-4.1829,-4.1826,-4.1878,-4.1872,-4.205,-4.2072,-4.1918,-4.1919,-4.1921,0,-4.1486,-4.1531,-4.1555,-4.1581,-4.1596,-4.1638,-4.1663,-4.1654,-4.1681,-4.1712,-4.1746,-4.1788,-4.1821,-4.1893,-4.1899,-4.1936,-4.1926,-4.1986,-4.1931,-4.1933,-4.1925,-4.1922,-4.1926,-4.1995,-4.1997,-4.1998,-4.2,0,-4.1619,-4.1618,-4.1655,-4.1693,-4.1724,-4.1753,-4.1779,-4.1802,-4.1797,-4.1828,-4.1873,-4.1899,-4.1951,-4.1992,-4.2029,-4.204,-4.2019,-4.2018,-4.2031,-4.2034,-4.2033,-4.2033,-4.1856,-4.2012,-4.2011,-4.201,-4.201,-4.2009,-4.1715,-4.1754,-4.1778,-4.182,-4.184,-4.1866,-4.1903,-4.191,-4.1948,-4.199,-4.1983,-4.2034,-4.2057,-4.2104,-4.2119,-4.2159,-4.2137,-4.2157,-4.2162,-4.2167,-4.2172,-4.2029,-4.2166,-4.2165,-4.2165,-4.2165,-4.2164,0,-4.1846,-4.186,-4.19,-4.1939,-4.1973,-4.1953,-4.1981,-4.2011,-4.2056,-4.208,-4.2114,-4.2167,-4.2208,-4.2219,-4.2258,-4.2288,-4.2279,-4.2298,-4.2295,-4.2298,-4.219,-4.2173,-4.2305,-4.2305,-4.2305,-4.2305,-4.2305,-4.2305,-4.1917,-4.1982,-4.1983,-4.2058,-4.2071,-4.2122,-4.214,-4.2164,-4.2184,-4.2244,-4.2279,-4.2286,-4.2305,-4.2346,-4.2383,-4.2385,-4.24,-4.2423,-4.2421,-4.232,-4.2305,-4.2292,-4.2276,-4.2427,-4.2427,-4.2525,-4.2526,-4.2527]},{"header":{"parameterUnit":"m.s-1","parameterCategory":1,"la1":30.2991,"la2":30.254,"lo1":-89.0895,"lo2":-89.0444,"dy":0.0017,"dx":0.0017,"nx":28,"ny":28,"refTime":"2026-03-05T03:00:00:Z","depth":0,"parameterNumber":3,"parameterNumberName":"V-component_of_WINDS"},"data":[0,0,0,0,0,0,0,0,0,0,0,0,0,0,0,0,0,0,0,0,0,0,0,0,0,0,0,0,0,0,0,0,0,0,0,0,0,0,0,0,0,0,0,0,0,0,0,0,0,0,0,0,0,0,0,0,0,0,2.0511,2.0511,0,2.0536,2.0536,2.0537,2.0562,2.0563,2.0563,2.0563,2.0585,2.0585,2.0585,0,0,0,0,0,0,0,0,0,0,0,0,0,2.0484,2.0485,2.0511,2.0511,2.0512,2.0536,2.0536,2.0537,2.0562,2.0563,2.0563,2.0563,2.0585,2.0585,2.0585,0,0,0,0,0,0,0,0,0,0,0,0,0,2.0501,2.0485,2.0511,2.0528,2.0529,2.0536,2.0536,2.0537,2.0562,2.0563,2.0563,2.0564,2.0585,2.0585,2.0585,2.0576,0,0,2.0586,2.0586,0,0,0,0,0,0,0,0,2.05,2.0502,2.0525,2.0526,2.0528,2.0547,2.0535,2.055,2.0562,2.0549,2.0563,2.0564,2.0571,2.0573,2.0576,2.0577,2.0578,2.0586,2.0587,2.0587,2.0587,0,0,0,0,0,0,0,2.0499,2.0501,2.0521,2.0525,2.0527,2.0533,2.0536,2.0538,2.0557,2.0551,2.0553,2.0555,2.0572,2.0576,2.0577,2.0579,2.0586,2.0587,2.0587,2.0587,2.0577,2.0577,0,0,0,0,0,0,2.0496,2.05,2.052,2.0522,2.0516,2.0533,2.0537,2.054,2.0557,2.056,2.0555,2.0556,2.0575,2.0576,2.0578,2.0571,2.0587,2.0587,2.0587,2.0578,2.0577,2.0576,0,0,0,0,0,0,2.0495,2.0497,2.0519,2.0511,2.0515,2.0533,2.0537,2.054,2.0544,2.056,2.0564,2.0555,2.0575,2.0577,2.0578,2.0572,2.0587,2.0587,2.0578,2.0577,2.0577,2.0555,0,0,0,0,0,0,2.0494,2.0497,2.0494,2.0511,2.0515,2.0519,2.0536,2.054,2.0545,2.0547,2.0561,2.0564,2.0576,2.0577,2.0578,2.0572,2.0588,2.0579,2.0578,2.0577,2.0556,2.0553,2.0551,0,0,0,0,0,2.0493,2.0485,2.0493,2.0496,2.0512,2.0518,2.052,2.0536,2.0544,2.0541,2.0553,2.0563,2.0572,2.0577,2.0578,2.0572,2.0579,2.0578,2.0577,2.0557,2.0554,2.0551,0,0,0,0,0,0,2.0464,2.0487,2.0497,2.0494,2.0505,2.0523,2.0519,2.0531,2.0538,2.0539,2.0557,2.056,2.0559,2.0565,2.057,2.0566,2.0577,2.0577,2.0562,2.0559,2.0556,2.0555,2.0588,0,0,0,0,0,2.0458,2.0462,2.0482,2.0478,2.0483,2.05,2.0503,2.0515,2.0525,2.0529,2.054,2.0549,2.0554,2.0557,2.0562,2.0557,2.0562,2.0554,2.0552,2.055,2.0549,2.0549,2.0547,2.0573,2.0573,2.0573,0,0,2.0444,2.0457,2.0458,2.0472,2.0481,2.0485,2.0503,2.0506,2.0509,2.0529,2.0531,2.054,2.0551,2.0549,2.0549,2.0555,2.0543,2.0548,2.0547,2.0547,2.0548,2.0545,2.0543,2.0572,2.0572,2.0573,0,0,2.0421,2.0431,2.043,2.044,2.0454,2.0467,2.0467,2.0484,2.0491,2.0494,2.051,2.0513,2.0521,2.0529,2.0534,2.0519,2.053,2.052,2.0506,2.0507,2.0505,2.0503,2.0499,2.0497,2.0519,2.0519,2.0519,0,2.0401,2.0409,2.0427,2.0431,2.0437,2.0458,2.0457,2.0465,2.048,2.0484,2.049,2.0503,2.0512,2.0514,2.051,2.0513,2.0514,2.0518,2.0504,2.0502,2.0501,2.0497,2.0495,2.0517,2.0518,2.0518,2.0518,0,2.0385,2.039,2.0388,2.0404,2.041,2.0411,2.043,2.0434,2.0446,2.0457,2.0461,2.0473,2.0482,2.0483,2.0493,2.0488,2.0491,2.05,2.0512,2.0497,2.0494,2.0492,2.0516,2.0516,2.0517,2.0517,0,0,2.0342,2.0372,2.0371,2.038,2.0399,2.0403,2.0406,2.0417,2.0421,2.0431,2.0434,2.0442,2.0452,2.0458,2.0469,2.047,2.0459,2.0479,2.048,2.0476,2.0455,2.0448,2.0446,2.0467,2.0466,2.0466,2.0455,0,2.0324,2.0331,2.035,2.0351,2.0357,2.0378,2.0381,2.0393,2.0405,2.0411,2.0424,2.043,2.0442,2.0446,2.0447,2.046,2.0455,2.0461,2.047,2.047,2.0467,2.0444,2.0437,2.0425,2.0453,2.0453,2.0453,0,2.0302,2.0314,2.0317,2.0339,2.0342,2.0344,2.0357,2.0363,2.0378,2.0387,2.0395,2.0409,2.0413,2.0424,2.0431,2.0435,2.044,2.0447,2.0447,2.0449,2.046,2.0446,2.0421,2.042,2.0451,2.0451,2.0451,0,2.0273,2.0289,2.0294,2.03,2.0325,2.0327,2.0337,2.0353,2.0359,2.0371,2.0375,2.0386,2.0392,2.0401,2.0417,2.0424,2.0423,2.0435,2.0431,2.043,2.0429,2.0429,2.0406,2.0431,2.0431,2.0431,2.0431,0,2.025,2.0251,2.0281,2.0284,2.0287,2.0308,2.031,2.0322,2.0336,2.0342,2.036,2.0365,2.0387,2.0394,2.0407,2.0412,2.0414,2.0421,2.0425,2.042,2.0419,2.0423,2.0425,2.0431,2.0431,2.0431,2.0431,0,2.0217,2.0237,2.0244,2.0268,2.0275,2.0276,2.0296,2.03,2.0314,2.0321,2.0324,2.0346,2.0356,2.0374,2.0388,2.0397,2.0399,2.0405,2.0395,2.0397,2.0392,2.0393,2.0371,2.037,2.0396,2.0395,2.0395,0,2.0201,2.0203,2.0229,2.0235,2.0246,2.0255,2.0263,2.0284,2.0291,2.031,2.0312,2.0324,2.0335,2.035,2.0366,2.0378,2.0385,2.0376,2.0386,2.0382,2.0386,2.0386,2.0387,2.0374,2.0374,2.0373,2.0373,0,2.0172,2.0183,2.0194,2.0209,2.0219,2.0231,2.0245,2.0249,2.0274,2.0281,2.0293,2.0301,2.0318,2.033,2.0345,2.0355,2.0368,2.037,2.037,2.0365,2.036,2.0364,2.039,2.037,2.037,2.0371,2.0371,2.0371,2.0148,2.0152,2.0171,2.0184,2.0197,2.021,2.0216,2.0232,2.0243,2.0259,2.0271,2.0283,2.03,2.0321,2.0331,2.034,2.0346,2.0345,2.0345,2.0345,2.0344,2.0359,2.0343,2.0343,2.0343,2.0343,2.0343,0,2.0121,2.0135,2.0147,2.0167,2.0177,2.0191,2.0208,2.0215,2.0225,2.0241,2.0252,2.0267,2.0279,2.0298,2.0312,2.0316,2.0323,2.0319,2.0319,2.0322,2.0337,2.0336,2.0314,2.0314,2.0314,2.0314,2.0314,2.0314,2.0108,2.0116,2.0129,2.0145,2.0159,2.0172,2.018,2.0193,2.0206,2.0222,2.0233,2.0246,2.0263,2.028,2.0292,2.0297,2.0302,2.0296,2.0304,2.0317,2.032,2.0323,2.0322,2.0297,2.0297,2.0288,2.0288,2.0287]}]]